RH
90 96 98 99 97 80 86 87 78 75 74 69 66 48 35 19 14 8 3 3 11 14 18 18 17 21 23 22 22 19 28 29 21 19 18 14 15 12 29 42 36 40 36 33 44
94 99 91 96 89 89 88 84 79 76 71 72 69 65 60 49 32 8 10 7 4 9 15 16 15 15 20 22 22 23 30 25 19 16 18 15 14 13 26 37 35 41 40 35 43
84 86 90 92 92 88 85 82 77 74 75 70 69 62 64 65 45 14 16 15 16 16 12 11 12 13 20 19 19 22 28 22 19 16 16 15 13 13 18 23 36 41 42 38 44
45 57 69 72 73 73 72 69 69 67 69 68 69 65 64 63 33 18 15 16 19 23 14 10 11 17 23 21 18 21 20 18 17 16 16 15 12 13 13 12 14 24 30 37 44
26 27 30 32 32 29 30 29 30 34 42 51 60 66 69 68 55 22 16 14 14 21 22 20 16 20 23 22 20 22 20 19 18 18 17 15 14 14 14 12 12 34 40 38 43
23 18 17 13 12 8 8 6 5 5 5 8 19 35 63 84 46 44 48 34 15 17 21 26 26 25 26 24 20 18 22 22 21 18 17 17 15 13 12 13 14 35 43 41 41
26 22 21 18 14 12 10 9 8 6 6 5 5 7 42 44 47 48 30 23 21 16 18 25 25 25 26 30 24 22 27 25 21 18 17 15 18 18 12 13 18 36 40 45 42
34 26 23 20 19 17 14 11 10 9 16 10 8 12 47 8 37 27 35 24 25 20 16 18 23 22 25 27 26 27 26 32 22 18 17 16 24 18 12 13 12 19 39 49 44
35 32 28 28 30 24 20 12 7 11 31 19 15 21 27 9 12 15 27 30 28 22 20 21 20 20 27 35 39 38 36 30 27 19 18 18 23 16 13 14 14 14 16 39 45
55 48 49 46 46 41 34 21 16 23 59 59 37 49 18 24 53 50 42 38 43 43 33 30 19 30 44 43 44 42 37 32 29 21 18 21 22 19 13 14 15 14 14 14 21
59 56 57 52 48 44 38 40 51 66 61 56 40 41 28 47 41 45 43 41 52 49 34 22 25 31 24 32 30 28 31 34 26 20 22 22 24 22 16 15 16 13 12 13 14
62 63 58 55 50 48 57 76 90 94 83 37 28 40 29 46 56 36 43 46 47 49 26 26 30 22 19 30 35 36 37 34 28 23 22 21 20 16 19 17 15 14 12 11 12
57 58 56 54 52 52 70 82 68 72 76 47 32 32 21 21 37 18 34 37 42 50 41 35 28 23 21 31 36 36 38 31 30 26 24 25 25 18 16 16 14 14 13 12 12
56 53 51 48 44 72 78 73 65 71 80 46 46 33 44 48 40 21 17 39 37 47 39 39 31 32 33 27 29 31 25 28 27 29 30 22 32 19 17 20 19 14 12 11 11
54 55 52 50 61 85 78 67 68 81 47 28 30 38 41 40 43 46 43 53 47 36 39 44 39 45 40 36 26 28 29 30 29 31 31 28 32 22 18 22 20 18 13 12 11
51 56 57 56 54 66 76 63 62 65 27 40 38 48 50 46 41 44 51 53 48 50 50 52 42 43 46 34 32 31 35 34 31 48 72 32 31 27 22 20 17 16 12 11 10
53 60 60 60 60 76 73 64 70 60 34 38 36 45 49 50 47 47 61 63 67 72 66 47 38 36 34 41 33 36 42 63 57 73 80 47 33 24 20 19 18 18 14 14 15
48 55 65 59 59 82 69 72 52 43 62 44 43 41 46 36 31 48 53 69 58 51 64 70 69 44 37 37 38 38 43 73 77 70 51 40 60 41 24 21 20 18 19 20 19
75 68 62 63 60 76 75 93 70 63 52 59 48 38 49 45 34 35 42 44 37 35 64 76 73 42 36 37 36 44 52 39 57 55 63 54 45 34 28 28 27 25 24 23 21
80 80 73 65 63 72 93 82 84 56 56 57 67 57 69 56 50 44 36 38 39 35 32 44 71 49 47 39 37 42 42 63 61 94 84 57 58 53 37 38 34 37 37 36 35
79 82 96 72 65 74 97 93 82 56 53 63 69 68 65 64 53 49 43 35 42 43 35 38 70 59 44 54 62 56 58 55 58 74 91 90 66 37 42 56 50 44 48 46 46
79 95 93 86 86 90 99 86 61 58 56 59 57 57 62 75 71 60 47 50 49 49 51 42 63 84 61 44 39 46 63 72 93 87 93 96 72 39 52 35 29 42 40 28 22
74 91 100 97 99 100 91 67 60 64 60 60 66 65 67 75 84 74 66 51 48 53 60 56 75 89 58 48 49 70 47 44 72 98 89 96 71 46 37 34 26 27 32 32 38
86 98 94 96 90 84 92 94 85 85 76 60 64 63 69 73 71 78 74 56 46 50 50 55 78 77 85 57 52 55 55 55 59 93 77 76 68 53 42 36 29 30 32 33 33
91 89 81 99 99 97 78 82 77 80 68 73 79 79 77 88 80 78 66 64 55 53 57 58 78 66 60 56 59 61 61 57 62 60 77 59 61 49 39 36 30 35 36 34 32
82 92 97 76 72 91 91 99 79 69 79 81 84 70 78 94 85 78 70 75 76 63 62 63 88 79 81 64 62 66 58 56 55 53 52 52 53 34 33 35 38 28 33 36 30
85 99 80 79 92 93 92 79 70 67 68 68 67 73 79 70 70 66 66 67 68 74 77 78 86 86 85 63 68 80 57 56 51 48 48 56 45 36 39 36 30 30 32 33 54
Wind_Speed
12 11 10 12 14 11 13 13 11 12 13 13 15 14 16 16 16 14 11 6 7 9 7 5 6 5 5 3 5 3 4 2 4 3 6 10 7 12 3 17 7 7 9 9 28
16 13 15 17 20 16 15 16 15 13 13 14 14 16 16 18 19 12 5 6 10 12 11 8 7 6 3 2 4 4 4 7 5 2 5 16 5 6 2 1 3 5 11 19 29
20 20 22 22 21 22 20 19 19 18 17 15 16 15 17 16 20 3 3 3 1 6 9 9 7 5 3 3 5 4 5 5 9 16 16 11 8 1 6 3 7 12 17 30 31
18 17 18 19 20 20 20 20 20 19 19 17 18 16 17 13 6 4 2 2 2 4 4 6 4 3 2 3 2 2 9 6 7 4 10 6 8 5 6 4 5 10 16 32 33
14 14 14 15 18 18 17 18 19 18 18 18 19 18 16 10 20 7 9 8 2 2 3 2 5 4 2 4 4 4 4 9 10 19 12 14 11 5 9 5 3 11 25 32 33
11 12 12 13 13 14 14 14 16 15 15 17 17 17 14 10 14 15 21 17 9 5 4 3 1 1 4 5 2 5 9 14 8 16 13 5 6 3 9 4 5 16 30 34 34
9 9 10 10 11 11 12 13 13 14 14 16 16 15 18 32 9 12 14 14 12 10 8 5 2 2 4 5 6 8 7 5 6 6 5 4 6 8 19 8 7 21 26 35 37
8 7 7 8 9 10 10 10 10 9 10 13 15 13 14 11 13 29 17 18 12 10 11 10 6 5 4 7 7 4 1 4 4 1 4 7 10 10 19 18 18 16 25 34 39
5 6 6 6 8 9 10 11 9 8 9 10 9 8 15 10 15 13 22 26 17 15 13 10 10 4 3 2 4 5 4 5 8 7 4 7 5 5 16 13 17 17 22 31 39
5 5 5 6 7 8 9 9 7 10 9 9 8 4 10 4 2 2 3 13 20 15 12 9 5 2 2 4 9 6 5 5 8 3 3 10 10 8 25 23 22 27 22 25 35
4 5 6 6 6 8 7 1 4 1 7 7 1 8 5 6 5 4 2 9 6 8 6 7 4 12 16 18 2 4 5 8 3 1 5 6 10 10 19 26 13 28 34 26 27
5 6 6 6 5 5 6 7 7 9 10 17 20 28 28 28 9 6 4 9 8 4 5 2 14 17 4 7 9 6 8 17 8 5 3 12 19 18 8 16 23 26 33 34 31
6 7 7 6 5 3 6 9 5 5 3 11 7 10 12 12 11 23 7 4 4 6 7 9 3 7 4 5 8 11 14 16 10 5 7 5 18 20 15 13 28 27 28 29 30
7 8 8 5 4 3 5 8 4 3 3 5 3 2 4 5 5 9 18 6 2 8 6 7 10 15 7 7 8 11 4 11 10 2 10 4 8 21 8 9 7 24 29 28 28
10 9 9 6 2 2 3 5 3 4 4 3 1 2 4 4 5 3 9 7 5 5 5 5 2 7 4 7 6 8 3 6 6 9 7 14 5 21 2 9 8 10 23 24 23
12 11 10 8 7 5 1 1 2 6 4 5 3 2 1 3 2 1 3 4 3 3 1 4 8 3 6 1 1 7 3 4 6 3 7 20 8 26 14 12 5 7 25 31 37
12 12 11 8 4 1 2 1 5 4 5 5 3 2 3 3 2 1 4 1 4 4 3 4 10 4 6 2 3 6 1 3 4 6 11 14 9 24 5 9 8 10 22 22 26
12 13 12 10 7 3 7 5 4 3 4 5 5 9 2 7 4 1 3 2 5 2 2 3 5 3 3 7 7 5 6 5 5 4 11 6 11 21 21 24 26 27 27 35 40
8 9 12 9 7 7 6 3 7 4 3 7 7 4 6 6 5 4 4 4 7 14 5 4 3 5 4 5 2 3 3 3 4 9 8 7 9 16 17 11 12 19 27 32 38
4 3 5 5 7 10 3 5 2 1 4 4 5 7 6 8 6 6 5 4 4 6 4 2 4 2 4 4 3 3 3 3 1 4 5 7 7 12 14 14 16 13 23 30 33
4 1 2 13 13 9 3 6 3 5 7 5 4 5 4 5 3 4 3 3 9 6 7 3 1 5 3 3 1 5 2 3 2 2 3 5 5 8 5 8 13 16 24 29 33
5 1 3 22 5 3 2 4 2 4 5 3 1 1 4 7 3 3 2 5 12 9 5 4 3 4 7 8 7 2 3 3 3 3 3 4 10 8 5 17 23 23 32 37 41
8 3 12 18 3 2 2 2 3 5 4 2 1 4 4 2 4 4 3 12 16 7 6 5 3 4 6 4 4 3 3 1 3 4 8 5 9 4 20 14 26 25 30 35 38
5 2 3 11 3 6 4 3 3 3 6 10 7 8 5 1 5 4 6 7 11 18 19 12 5 7 6 6 4 10 7 1 5 4 6 13 17 27 26 23 25 27 26 33 36
5 3 4 2 2 1 4 0 8 3 6 8 3 7 5 3 4 6 6 6 8 16 6 1 5 6 12 9 6 12 15 14 14 13 10 21 16 27 29 26 33 29 26 29 33
5 5 5 1 6 6 6 4 7 7 2 4 9 4 5 6 9 7 7 4 8 8 4 2 5 5 18 13 12 17 19 13 15 18 16 22 24 26 35 42 29 27 26 23 32
14 7 6 6 2 3 3 5 5 6 9 21 16 11 7 17 21 22 26 22 14 11 11 6 3 4 21 7 9 14 15 18 16 16 14 16 22 24 19 20 30 25 26 24 21
Wind_Direction
247 265 265 273 276 281 282 286 287 292 297 298 305 304 309 307 311 297 292 282 249 236 257 260 303 276 286 247 198 168 62 215 238 241 281 339 0 13 57 141 166 201 210 205 169
249 250 264 267 277 281 278 283 287 287 287 293 299 301 308 310 311 305 300 250 247 251 253 268 290 297 290 247 181 132 143 223 219 260 319 306 329 13 86 200 209 172 185 179 175
250 253 257 261 266 271 274 278 281 283 284 286 288 295 300 312 309 134 84 99 202 282 255 255 270 292 281 238 208 180 194 234 275 300 299 276 298 49 120 234 226 198 173 177 180
249 249 256 261 263 265 271 275 277 277 281 282 285 287 290 295 276 158 120 79 36 336 269 230 214 196 268 248 236 296 239 234 288 312 313 265 290 302 164 229 301 225 205 183 189
243 246 254 258 263 264 269 270 274 276 278 278 279 283 289 266 251 231 239 274 254 317 336 226 192 174 203 273 327 235 257 263 270 301 292 298 268 245 249 237 255 202 190 194 198
236 245 253 254 261 266 268 271 275 277 278 276 273 272 275 260 270 254 251 258 241 249 276 240 34 274 279 256 192 279 291 292 296 288 284 257 268 288 247 186 223 198 194 200 206
234 238 251 261 262 261 266 273 273 275 276 274 272 271 261 250 272 239 232 229 224 230 243 228 338 320 338 307 324 290 308 320 268 255 238 220 287 233 260 257 207 201 208 206 216
228 234 242 258 270 272 271 270 272 275 280 273 268 273 263 264 256 246 232 235 232 232 234 249 264 289 230 292 329 344 358 331 286 108 250 173 258 268 281 285 275 224 218 216 219
232 238 250 262 274 282 283 275 272 279 288 283 271 259 277 270 273 274 239 236 235 234 237 251 276 236 199 97 343 1 256 268 300 230 238 204 244 269 294 310 290 278 234 225 228
242 251 266 270 288 300 303 292 281 287 283 276 240 305 257 266 298 260 271 234 243 248 247 239 207 220 64 117 230 199 225 255 248 315 341 296 272 279 295 294 282 292 276 246 239
254 266 276 287 306 318 338 2 356 302 321 238 270 246 279 270 286 223 288 195 193 203 210 185 155 218 209 210 222 191 231 248 240 345 356 277 298 284 291 290 274 286 287 276 255
259 271 276 293 314 315 29 58 27 321 307 286 263 258 258 272 301 273 208 169 174 182 158 118 232 226 207 175 203 231 247 261 288 249 250 299 288 283 266 272 272 267 279 282 282
256 272 282 297 299 321 63 32 2 306 320 293 273 270 272 247 224 256 244 209 166 168 196 208 255 189 198 169 207 228 231 257 263 335 264 282 282 284 269 257 279 276 270 277 284
270 276 284 292 292 10 68 50 50 23 49 273 280 291 180 173 242 259 232 222 199 186 173 235 266 270 271 244 202 244 193 254 276 292 272 146 279 280 290 259 251 277 281 279 282
269 274 280 278 306 61 6 65 14 355 31 12 109 48 167 192 310 19 198 158 173 151 151 225 38 46 279 257 223 261 326 275 263 258 286 255 248 272 214 260 256 259 275 289 293
264 263 262 263 258 248 296 119 328 43 259 335 140 168 170 245 275 38 126 97 127 2 87 237 273 218 197 321 100 306 309 309 261 61 280 265 208 279 251 263 237 259 276 280 287
249 250 249 248 235 213 193 187 42 123 292 357 330 269 231 215 310 95 114 171 130 123 254 297 263 219 190 265 213 208 226 291 233 185 234 239 258 253 237 278 266 281 292 301 305
242 238 241 238 226 153 169 56 96 245 273 332 337 301 85 13 46 347 98 121 334 27 193 203 322 199 165 212 200 198 188 190 229 207 265 189 210 242 261 271 284 292 297 306 304
241 240 239 233 214 169 165 77 204 207 355 340 312 25 13 3 46 44 50 66 40 48 5 341 263 347 333 6 65 303 251 245 266 268 273 255 284 294 284 297 306 304 308 299 299
242 253 263 200 176 164 90 214 240 270 31 330 31 19 46 359 38 28 27 347 22 33 321 233 279 319 10 354 356 197 222 316 289 299 240 246 227 247 287 298 301 332 334 328 324
213 149 64 152 158 157 176 223 282 68 45 31 29 6 34 34 23 1 355 72 15 338 346 330 110 309 30 42 26 342 349 341 306 224 241 276 259 242 310 34 348 323 314 312 313
161 66 123 149 100 153 168 197 301 41 73 25 61 281 45 47 10 326 261 46 13 17 8 336 280 261 223 234 246 155 223 183 201 305 275 273 269 271 24 342 331 312 301 312 319
150 117 159 166 133 198 257 262 312 12 35 30 45 52 80 82 350 323 332 331 330 21 12 344 328 325 326 18 17 155 157 50 188 166 248 274 264 315 313 314 313 297 295 305 313
151 105 156 189 217 147 139 163 262 265 242 259 280 311 309 272 179 273 299 300 316 308 292 285 221 209 238 256 330 300 303 253 245 216 262 248 284 296 299 304 310 305 311 306 308
165 180 169 197 206 178 164 236 223 246 212 173 243 215 216 276 298 239 259 285 287 292 280 283 265 293 287 266 276 274 267 268 258 255 252 276 275 276 287 293 293 303 302 306 314
174 149 173 149 160 170 224 193 231 247 238 238 230 235 223 217 217 281 281 257 254 293 254 286 281 321 289 283 271 270 257 249 249 257 257 260 265 262 274 281 285 294 300 298 310
202 152 157 174 155 115 191 202 237 232 259 247 254 265 246 247 259 260 260 258 251 260 273 242 247 284 279 275 291 274 257 233 239 242 236 252 254 274 275 278 286 297 300 298 306